AB4PS Weather Reports


time (UTC)temp
C
wind
direction
speed
KPH
gust
KPH
rain 1hr
cm
rain 24hr
cm
rain mn
cm
humidity
%
barometer
mb
20260509011538 17 120 0.0 0.0 0.00 0.00 0.00 56 1015.4
20260509011034 17 120 0.0 0.0 0.00 0.00 0.00 55 1015.4
20260509010532 17 120 0.0 0.0 0.00 0.00 0.00 55 1015.3
20260509010029 17 120 0.0 0.0 0.00 0.00 0.00 54 1015.3
20260509005527 17 120 0.0 0.0 0.00 0.00 0.00 54 1015.3
20260509005027 17 120 0.0 0.0 0.00 0.00 0.00 54 1015.4
20260509004524 17 120 0.0 0.0 0.00 0.00 0.00 55 1015.6
20260509004021 18 120 0.0 0.0 0.00 0.00 0.00 55 1015.4
20260509003519 18 120 0.0 0.0 0.00 0.00 0.00 54 1015.4
20260509003016 18 120 0.0 0.0 0.00 0.00 0.00 54 1015.2
20260509002513 18 120 0.0 0.0 0.00 0.00 0.00 54 1015.3
20260509002011 18 120 0.0 0.0 0.00 0.00 0.00 53 1014.9
20260509001508 18 120 0.0 0.0 0.00 0.00 0.00 52 1014.9
20260509001004 18 120 0.0 0.0 0.00 0.00 0.00 53 1014.8
20260509000503 18 120 0.0 0.0 0.00 0.00 0.00 51 1015.0
20260508235957 19 120 0.0 0.0 0.00 0.00 0.00 52 1015.0
20260508235456 19 120 0.0 0.0 0.00 0.00 0.00 51 1014.8
20260508234952 19 120 3.2 3.2 0.00 0.00 0.00 48 1014.9
20260508234449 20 120 0.0 0.0 0.00 0.00 0.00 48 1014.9
20260508233947 20 120 0.0 0.0 0.00 0.00 0.00 49 1014.9
20260508233446 20 120 0.0 0.0 0.00 0.00 0.00 48 1014.9
20260508232942 20 120 1.6 1.6 0.00 0.00 0.00 46 1014.9
20260508232439 20 125 0.0 0.0 0.00 0.00 0.00 46 1014.7
20260508231936 20 126 1.6 3.2 0.00 0.00 0.00 45 1015.0
20260508231434 20 130 0.0 0.0 0.00 0.00 0.00 47 1015.0
20260508230930 20 131 1.6 1.6 0.00 0.00 0.00 45 1014.8
20260508230427 20 97 3.2 3.2 0.00 0.00 0.00 45 1015.0
20260508225924 20 95 0.0 0.0 0.00 0.00 0.00 46 1014.9
20260508225421 20 139 3.2 3.2 0.00 0.00 0.00 44 1014.9
20260508224918 21 133 1.6 1.6 0.00 0.00 0.00 44 1015.1
20260508224416 21 100 0.0 0.0 0.00 0.00 0.00 45 1014.9
20260508223913 21 111 0.0 0.0 0.00 0.00 0.00 45 1014.7
20260508223411 21 121 6.4 9.7 0.00 0.00 0.00 41 1014.9
20260508222908 21 126 0.0 0.0 0.00 0.00 0.00 44 1014.9
20260508222405 21 136 3.2 3.2 0.00 0.00 0.00 42 1014.9
20260508221901 21 139 1.6 1.6 0.00 0.00 0.00 43 1014.9
20260508221357 21 140 4.8 6.4 0.00 0.00 0.00 41 1015.1
20260508220854 21 140 0.0 0.0 0.00 0.00 0.00 43 1015.2
20260508220350 22 129 1.6 3.2 0.00 0.00 0.00 41 1014.9
20260508215847 22 135 0.0 1.6 0.00 0.00 0.00 41 1015.0
20260508215344 22 114 1.6 1.6 0.00 0.00 0.00 41 1015.0
20260508214840 22 114 0.0 0.0 0.00 0.00 0.00 41 1014.8
20260508214338 22 158 1.6 1.6 0.00 0.00 0.00 39 1014.8
20260508213834 22 141 3.2 4.8 0.00 0.00 0.00 38 1014.9
20260508213332 23 139 1.6 1.6 0.00 0.00 0.00 40 1015.0
20260508212827 23 150 0.0 0.0 0.00 0.00 0.00 38 1014.7
20260508212323 23 140 1.6 1.6 0.00 0.00 0.00 38 1014.7
20260508211819 22 125 1.6 1.6 0.00 0.00 0.00 41 1014.6
20260508211315 23 128 9.7 11.3 0.00 0.00 0.00 37 1014.8
20260508210813 23 147 4.8 3.2 0.00 0.00 0.00 37 1014.7
20260508210310 23 133 0.0 0.0 0.00 0.00 0.00 38 1015.0
20260508205806 24 150 3.2 3.2 0.00 0.00 0.00 35 1015.0
20260508205306 24 166 1.6 1.6 0.00 0.00 0.00 36 1014.9
20260508204759 23 162 0.0 0.0 0.00 0.00 0.00 38 1015.1
20260508204256 23 162 1.6 1.6 0.00 0.00 0.00 36 1015.4
20260508203752 24 157 6.4 6.4 0.00 0.00 0.00 34 1015.1
20260508203248 24 160 0.0 1.6 0.00 0.00 0.00 34 1015.1
20260508202744 25 153 0.0 0.0 0.00 0.00 0.00 37 1015.3
20260508202242 24 145 0.0 1.6 0.00 0.00 0.00 36 1015.0
20260508201739 24 147 1.6 1.6 0.00 0.00 0.00 35 1015.0
20260508201235 24 124 0.0 0.0 0.00 0.00 0.00 35 1015.1
20260508200732 25 21 1.6 1.6 0.00 0.00 0.00 32 1015.2
20260508200228 25 121 0.0 0.0 0.00 0.00 0.00 35 1015.3
20260508195724 23 349 0.0 1.6 0.00 0.00 0.00 34 1015.2
20260508195221 23 203 1.6 1.6 0.00 0.00 0.00 35 1015.3
20260508194718 23 181 3.2 3.2 0.00 0.00 0.00 34 1015.4
20260508194215 23 151 6.4 4.8 0.00 0.00 0.00 33 1015.5
20260508193712 23 151 3.2 3.2 0.00 0.00 0.00 34 1015.5
20260508193208 25 197 1.6 1.6 0.00 0.00 0.00 33 1015.4
20260508192705 24 125 1.6 1.6 0.00 0.00 0.00 32 1015.8
20260508192202 25 119 0.0 0.0 0.00 0.00 0.00 38 1015.8
20260508191659 24 132 0.0 1.6 0.00 0.00 0.00 36 1015.9
20260508191155 24 99 3.2 4.8 0.00 0.00 0.00 34 1016.1
20260508190653 25 119 6.4 6.4 0.00 0.00 0.00 31 1016.4
20260508190149 24 43 3.2 3.2 0.00 0.00 0.00 33 1016.1
20260508185646 25 39 3.2 4.8 0.00 0.00 0.00 33 1016.0
20260508185143 24 15 6.4 6.4 0.00 0.00 0.00 32 1016.2
20260508184641 24 44 0.0 1.6 0.00 0.00 0.00 33 1016.4
20260508184138 23 1 1.6 3.2 0.00 0.00 0.00 33 1016.2
20260508183635 24 122 1.6 1.6 0.00 0.00 0.00 35 1016.5
20260508183130 24 97 0.0 0.0 0.00 0.00 0.00 36 1016.9
20260508182627 25 161 3.2 4.8 0.00 0.00 0.00 34 1016.8
20260508182124 25 132 4.8 4.8 0.00 0.00 0.00 33 1016.6
20260508181619 23 164 0.0 0.0 0.00 0.00 0.00 37 1016.9
20260508181117 23 156 3.2 4.8 0.00 0.00 0.00 35 1016.8
20260508180613 22 289 1.6 1.6 0.00 0.00 0.00 35 1017.1
20260508180110 22 245 1.6 1.6 0.00 0.00 0.00 36 1016.8
20260508175606 23 217 3.2 3.2 0.00 0.00 0.00 36 1016.9
20260508175104 23 189 0.0 0.0 0.00 0.00 0.00 42 1017.0
20260508174601 23 137 1.6 1.6 0.00 0.00 0.00 37 1017.0
20260508174058 23 119 1.6 1.6 0.00 0.00 0.00 38 1017.0
20260508173555 23 286 1.6 1.6 0.00 0.00 0.00 38 1017.2
20260508173051 22 153 4.8 6.4 0.00 0.00 0.00 35 1017.0
20260508172548 23 158 4.8 6.4 0.00 0.00 0.00 35 1017.3
20260508172044 23 187 1.6 1.6 0.00 0.00 0.00 37 1017.4
20260508171541 22 145 3.2 1.6 0.00 0.00 0.00 39 1017.2
20260508171038 22 177 6.4 11.3 0.00 0.00 0.00 37 1017.4
20260508170535 21 143 0.0 0.0 0.00 0.00 0.00 43 1017.4
20260508170032 22 138 3.2 4.8 0.00 0.00 0.00 38 1017.3
20260508165529 21 46 1.6 3.2 0.00 0.00 0.00 41 1017.4
20260508165026 21 196 1.6 3.2 0.00 0.00 0.00 40 1017.6
20260508164522 22 147 3.2 4.8 0.00 0.00 0.00 39 1017.9
20260508164019 22 328 3.2 3.2 0.00 0.00 0.00 39 1017.9
20260508163517 21 98 3.2 4.8 0.00 0.00 0.00 40 1017.7
20260508163013 22 136 3.2 3.2 0.00 0.00 0.00 40 1017.9
20260508162510 22 38 3.2 3.2 0.00 0.00 0.00 39 1018.0
20260508162008 22 44 1.6 1.6 0.00 0.00 0.00 39 1018.1
20260508161504 22 194 1.6 1.6 0.00 0.00 0.00 41 1018.1
20260508161001 22 330 1.6 1.6 0.00 0.00 0.00 37 1018.2
20260508160500 22 116 6.4 6.4 0.00 0.00 0.00 37 1018.4
20260508155955 21 315 1.6 1.6 0.00 0.00 0.00 42 1018.5
20260508155453 21 26 0.0 1.6 0.00 0.00 0.00 41 1018.5
20260508154950 21 33 8.0 9.7 0.00 0.00 0.00 39 1018.6
20260508154448 21 143 1.6 1.6 0.00 0.00 0.00 41 1018.5
20260508153944 21 143 1.6 1.6 0.00 0.00 0.00 41 1018.6
20260508153441 21 159 3.2 3.2 0.00 0.00 0.00 40 1018.5
20260508152937 20 137 8.0 9.7 0.00 0.00 0.00 38 1018.4
20260508152434 20 163 4.8 4.8 0.00 0.00 0.00 43 1018.5
20260508151930 20 137 8.0 11.3 0.00 0.00 0.00 40 1018.5
20260508151427 20 152 4.8 4.8 0.00 0.00 0.00 40 1018.5
20260508150924 20 136 3.2 3.2 0.00 0.00 0.00 42 1018.6
20260508150420 20 134 3.2 4.8 0.00 0.00 0.00 43 1018.4
20260508145916 19 141 6.4 9.7 0.00 0.00 0.00 41 1018.5
20260508145413 20 148 1.6 1.6 0.00 0.00 0.00 45 1018.6
20260508144910 19 80 3.2 3.2 0.00 0.00 0.00 45 1018.7
20260508144408 19 12 4.8 4.8 0.00 0.00 0.00 47 1018.5
20260508143905 19 22 1.6 4.8 0.00 0.00 0.00 46 1018.6
20260508143402 18 145 6.4 6.4 0.00 0.00 0.00 47 1018.6
20260508142858 18 32 4.8 6.4 0.00 0.00 0.00 49 1018.4
20260508142355 18 25 1.6 1.6 0.00 0.00 0.00 48 1018.5
20260508141852 19 15 4.8 4.8 0.00 0.00 0.00 46 1018.4
20260508141349 19 19 4.8 4.8 0.00 0.00 0.00 47 1018.5
20260508140847 20 262 4.8 4.8 0.00 0.00 0.00 45 1018.5
20260508140343 20 20 3.2 4.8 0.00 0.00 0.00 47 1018.4
20260508135838 19 121 3.2 3.2 0.00 0.00 0.00 50 1018.6
20260508135335 18 127 4.8 4.8 0.00 0.00 0.00 50 1018.5
20260508134831 18 164 3.2 4.8 0.00 0.00 0.00 50 1018.6
20260508134328 18 122 9.7 12.9 0.00 0.00 0.00 49 1018.5
20260508133825 18 131 11.3 16.1 0.00 0.00 0.00 51 1018.7
20260508133323 17 171 3.2 4.8 0.00 0.00 0.00 56 1018.3
20260508132820 17 0 4.8 4.8 0.00 0.00 0.00 55 1018.4
20260508132318 17 7 1.6 3.2 0.00 0.00 0.00 60 1018.4
20260508131814 17 46 1.6 1.6 0.00 0.00 0.00 60 1018.2
20260508131310 16 170 6.4 9.7 0.00 0.00 0.00 66 1018.1
20260508130806 16 141 6.4 9.7 0.00 0.00 0.00 64 1017.9
20260508130304 16 128 4.8 4.8 0.00 0.00 0.00 66 1017.9
20260508125800 16 90 1.6 3.2 0.00 0.00 0.00 70 1017.7
20260508125256 15 350 3.2 6.4 0.00 0.00 0.00 73 1017.8
20260508124754 15 1 3.2 4.8 0.00 0.00 0.00 73 1017.9
20260508124251 15 153 3.2 4.8 0.00 0.00 0.00 77 1017.9
20260508123749 15 20 3.2 3.2 0.00 0.00 0.00 77 1017.8
20260508123247 15 34 1.6 3.2 0.00 0.00 0.00 78 1017.8
20260508122743 15 16 4.8 6.4 0.00 0.00 0.00 80 1017.7
20260508122240 15 39 1.6 3.2 0.00 0.00 0.00 81 1017.8
20260508121737 14 10 1.6 3.2 0.00 0.00 0.00 82 1017.9
20260508121235 14 21 3.2 3.2 0.00 0.00 0.00 83 1017.6
20260508120732 14 20 1.6 1.6 0.00 0.00 0.00 85 1017.7
20260508120231 14 51 3.2 3.2 0.00 0.00 0.00 86 1017.6
20260508115728 13 30 1.6 1.6 0.00 0.00 0.00 88 1017.5
20260508115225 13 357 1.6 3.2 0.00 0.00 0.00 91 1017.4
20260508114721 13 8 0.0 1.6 0.00 0.00 0.00 93 1017.2
20260508114218 13 14 4.8 4.8 0.00 0.00 0.00 96 1017.3
20260508113715 13 14 3.2 3.2 0.00 0.00 0.00 97 1017.0
20260508113214 12 25 3.2 3.2 0.00 0.00 0.00 97 1016.9
20260508112709 12 18 1.6 1.6 0.00 0.00 0.00 97 1016.8
20260508112206 12 19 1.6 1.6 0.00 0.00 0.00 97 1016.8
20260508111703 12 25 3.2 4.8 0.00 0.00 0.00 97 1016.5
20260508111201 12 22 1.6 1.6 0.00 0.00 0.00 97 1016.6
20260508110658 12 10 3.2 3.2 0.00 0.00 0.00 97 1016.5
20260508110155 12 19 0.0 1.6 0.00 0.00 0.00 97 1016.4
20260508105655 12 19 0.0 0.0 0.00 0.00 0.00 97 1016.5
20260508105152 12 19 0.0 1.6 0.00 0.00 0.00 97 1016.6
20260508104649 12 19 0.0 1.6 0.00 0.00 0.00 97 1016.2
20260508104146 12 19 0.0 0.0 0.00 0.00 0.00 97 1016.2
20260508103643 12 19 0.0 0.0 0.00 0.00 0.00 97 1015.9
20260508103140 12 19 0.0 0.0 0.00 0.00 0.00 97 1015.9
20260508102637 12 19 0.0 0.0 0.00 0.00 0.00 96 1015.8
20260508102135 12 19 0.0 0.0 0.00 0.00 0.00 96 1015.8
20260508101632 12 19 1.6 1.6 0.00 0.00 0.00 96 1015.8
20260508101130 12 19 1.6 1.6 0.00 0.00 0.00 96 1015.4
20260508100627 12 19 0.0 0.0 0.00 0.00 0.00 96 1015.6
20260508100125 12 19 0.0 1.6 0.00 0.00 0.00 96 1015.6
20260508095621 12 19 1.6 1.6 0.00 0.00 0.00 96 1015.5
20260508095118 12 19 0.0 0.0 0.00 0.00 0.00 96 1015.7
20260508094615 12 19 1.6 1.6 0.00 0.00 0.00 96 1015.5
20260508094112 12 19 0.0 0.0 0.00 0.00 0.00 96 1015.3
20260508093609 12 19 0.0 0.0 0.00 0.00 0.00 96 1015.3
20260508093107 12 20 0.0 0.0 0.00 0.00 0.00 96 1015.2
20260508092604 12 20 0.0 0.0 0.00 0.00 0.00 96 1015.2
20260508092102 12 20 0.0 0.0 0.00 0.00 0.00 96 1015.2
20260508091559 12 20 1.6 1.6 0.00 0.00 0.00 95 1015.1
20260508091056 12 20 0.0 0.0 0.00 0.00 0.00 95 1015.2
20260508090554 13 20 0.0 0.0 0.00 0.00 0.00 95 1015.1
20260508090050 13 21 0.0 1.6 0.00 0.00 0.00 95 1015.2
20260508085547 13 18 3.2 3.2 0.00 0.00 0.00 95 1015.1
20260508085044 13 14 0.0 1.6 0.00 0.00 0.00 95 1015.2
20260508084541 13 19 0.0 0.0 0.00 0.00 0.00 95 1015.1
20260508084038 13 20 0.0 0.0 0.00 0.00 0.00 94 1015.4
20260508083536 13 20 0.0 0.0 0.00 0.00 0.00 94 1015.3
20260508083032 13 21 1.6 1.6 0.00 0.00 0.00 94 1015.0
20260508082528 13 21 0.0 0.0 0.00 0.00 0.00 94 1015.2
20260508082026 13 25 0.0 1.6 0.00 0.00 0.00 94 1015.1
20260508081523 13 32 1.6 0.0 0.00 0.00 0.00 94 1015.0
20260508081019 13 37 0.0 0.0 0.00 0.00 0.00 94 1015.2
20260508080517 13 38 0.0 1.6 0.00 0.00 0.00 93 1014.8
20260508080014 13 37 0.0 0.0 0.00 0.00 0.00 93 1014.6
20260508075511 13 46 0.0 0.0 0.00 0.00 0.00 93 1015.0
20260508075008 13 48 0.0 0.0 0.00 0.00 0.00 93 1014.9
20260508074506 13 48 0.0 0.0 0.00 0.00 0.00 93 1014.7
20260508074002 13 48 0.0 0.0 0.00 0.00 0.00 93 1014.6
20260508073500 13 48 0.0 0.0 0.00 0.00 0.00 92 1014.6
20260508072957 13 48 0.0 1.6 0.00 0.00 0.00 93 1014.5
20260508072453 13 48 1.6 1.6 0.00 0.00 0.00 93 1014.5
20260508071950 13 48 0.0 0.0 0.00 0.00 0.00 92 1014.5
20260508071448 13 48 0.0 0.0 0.00 0.00 0.00 92 1014.4
20260508070945 13 48 0.0 0.0 0.00 0.00 0.00 91 1014.3
20260508070443 13 48 0.0 0.0 0.00 0.00 0.00 91 1014.4
20260508065941 13 49 0.0 0.0 0.00 0.00 0.00 90 1014.5
20260508065439 13 49 0.0 0.0 0.00 0.00 0.00 90 1014.4
20260508064937 13 49 0.0 0.0 0.00 0.00 0.00 90 1014.4
20260508064434 14 49 0.0 0.0 0.00 0.00 0.00 89 1014.2
20260508063931 14 52 0.0 0.0 0.00 0.00 0.00 89 1014.3
20260508063429 14 74 0.0 0.0 0.00 0.00 0.00 88 1014.5
20260508062926 14 126 1.6 1.6 0.00 0.00 0.00 87 1014.3
20260508062424 14 163 1.6 1.6 0.00 0.00 0.00 87 1014.4
20260508061921 14 16 0.0 1.6 0.00 0.00 0.00 87 1014.7
20260508061418 14 14 1.6 1.6 0.00 0.00 0.00 87 1014.8
20260508060914 15 20 0.0 0.0 0.00 0.00 0.00 87 1014.9
20260508060412 15 21 1.6 1.6 0.00 0.00 0.00 86 1014.6
20260508055907 15 17 3.2 3.2 0.00 0.00 0.00 86 1014.8
20260508055404 15 23 0.0 0.0 0.00 0.00 0.00 86 1014.6
20260508054901 15 23 0.0 0.0 0.00 0.00 0.00 85 1014.8
20260508054358 15 23 0.0 0.0 0.00 0.00 0.00 85 1014.7
20260508053855 15 12 1.6 1.6 0.00 0.00 0.00 85 1014.6
20260508053352 15 11 1.6 1.6 0.00 0.00 0.00 84 1014.7
20260508052850 15 11 0.0 0.0 0.00 0.00 0.00 84 1014.8
20260508052347 15 30 0.0 0.0 0.00 0.00 0.00 84 1014.7
20260508051843 15 27 0.0 0.0 0.00 0.00 0.00 83 1014.7
20260508051338 15 27 1.6 1.6 0.00 0.00 0.00 83 1014.6
20260508050835 15 12 0.0 0.0 0.00 0.00 0.00 83 1014.6
20260508050333 15 21 1.6 1.6 0.00 0.00 0.00 82 1014.5
20260508045828 15 26 1.6 1.6 0.00 0.00 0.00 82 1014.4
20260508045326 15 17 1.6 1.6 0.00 0.00 0.00 82 1014.5
20260508044823 15 26 1.6 1.6 0.00 0.00 0.00 81 1014.5
20260508044319 15 57 3.2 3.2 0.00 0.00 0.00 82 1014.5
20260508043816 15 339 0.0 0.0 0.00 0.00 0.00 81 1014.4
20260508043313 15 98 1.6 1.6 0.00 0.00 0.00 80 1014.2
20260508042809 15 6 0.0 0.0 0.00 0.00 0.00 80 1014.0
20260508042308 16 26 3.2 3.2 0.00 0.00 0.00 79 1014.2
20260508041804 16 15 1.6 1.6 0.00 0.00 0.00 78 1013.9
20260508041300 16 354 1.6 1.6 0.00 0.00 0.00 77 1014.1
20260508040757 16 38 3.2 3.2 0.00 0.00 0.00 77 1014.0
20260508040255 16 12 3.2 3.2 0.00 0.00 0.00 76 1013.9
20260508035752 16 81 4.8 4.8 0.00 3.76 3.76 76 1014.0
20260508035249 16 356 4.8 6.4 0.00 3.76 3.76 75 1013.9
20260508034745 16 148 6.4 6.4 0.00 3.76 3.76 75 1013.8
20260508034243 16 8 4.8 4.8 0.00 3.76 3.76 75 1014.0
20260508033740 16 138 3.2 3.2 0.00 3.76 3.76 75 1013.9
20260508033238 16 359 4.8 4.8 0.00 3.76 3.76 74 1014.1
20260508032735 17 1 3.2 4.8 0.00 3.76 3.76 74 1013.9
20260508032232 17 33 4.8 9.7 0.00 3.76 3.76 74 1013.6
20260508031729 17 135 6.4 6.4 0.00 3.76 3.76 73 1013.7
20260508031225 17 333 6.4 6.4 0.00 3.76 3.76 73 1013.6
20260508030722 17 0 9.7 14.5 0.00 3.76 3.76 73 1013.5
20260508030219 17 27 6.4 11.3 0.00 3.76 3.76 74 1013.6
20260508025715 18 44 4.8 4.8 0.00 3.76 3.76 75 1013.6
20260508025213 18 32 3.2 4.8 0.00 3.76 3.76 77 1013.5
20260508024708 18 9 6.4 6.4 0.00 3.76 3.76 76 1013.4
20260508024206 18 21 6.4 6.4 0.00 3.76 3.76 76 1013.3
20260508023702 19 23 4.8 6.4 0.00 3.76 3.76 74 1013.3
20260508023200 20 33 6.4 9.7 0.00 3.76 3.76 73 1013.2
20260508022655 20 34 3.2 6.4 0.00 3.76 3.76 72 1012.8
20260508022153 20 48 3.2 4.8 0.00 3.76 3.76 73 1012.6
20260508021649 21 19 6.4 6.4 0.00 3.76 3.76 72 1012.5
20260508021144 21 47 3.2 3.2 0.00 3.76 3.76 70 1012.1
20260508020642 21 270 0.0 0.0 0.00 3.76 3.76 68 1012.1
20260508020140 21 357 1.6 1.6 0.00 3.76 3.76 67 1012.0
20260508015637 21 270 0.0 0.0 0.00 3.76 3.76 67 1011.8
20260508015134 21 225 1.6 1.6 0.00 3.76 3.76 67 1011.7
20260508014630 21 272 3.2 3.2 0.00 3.76 3.76 67 1011.7
20260508014126 21 67 0.0 1.6 0.00 3.76 3.76 68 1011.3
20260508013623 21 154 1.6 1.6 0.00 3.76 3.76 67 1011.1
20260508013120 21 322 1.6 1.6 0.00 3.76 3.76 68 1011.1
20260508012617 21 304 1.6 3.2 0.00 3.76 3.76 68 1011.1
20260508012114 21 165 1.6 1.6 0.00 3.76 3.76 69 1010.6